Showing default

ANTELSAT, 40034

Orbit data source: Space-Track

ANTELSAT, 40034 is an Uruguayan payload satellite in SSO that was launched on Thu, 19 Jun 2014 UTC via a DNEPR launch vehicle from the Orenburg, Russia (OREN). Payload-class satellites include a variety of spacecraft equipped with specific instruments for various scientific and technological missions. These include communications satellites like Starlink; space stations such as the ISS; scientific satellites like the Hubble; Earth observation satellites from companies like Planet Labs, Umbra, and HawkEye 360; GPS; miniature CubeSats for education and research; and military/defense satellites.

Loading next visibility...
Identifier
40034, 2014-033AA
Orbit
SSO
Country
Flag of UYUY / URY
Related business
Manufacturer
UdelaR FING
Mission
Non-operational Civil Tech/Com
Bus & Motor
CUBESAT 2U, Unknown motor
Mass
~2 kg wet, ~2 kg dry
Launch date (UTC)
2014-06-19 (11 years ago)
Launch vehicle
DNEPR
Launch site
Orenburg, Russia (OREN)
Object type
Payload
Rocket body
Debris
Shape & HBR
Box + 1 Ant, 0.1 m
Radar Cross Section
0.040 m², Medium (>0.1 m² and < 1m²)

Expand to show TLE details & history
Last TLE update: 20 hours ago

TLE from 20 hours ago
0 ANTELSAT
1 40034U 14033AA  25242.18762026  .00006130  00000-0  66627-3 0  9999
2 40034  97.7452  38.4859 0044941 299.3383  60.3348 14.87704326602490
Epoch: 2025-08-30T04:30Z
TLE epoch observation values (Epoch: 2025-08-30T04:30:10.39Z)
Latitude
-0.00001°
Longitude
-7.6829°
Altitude
592.718 km
Speed
7.572 km/s
True Right ascension
02h 33m 56s
True Declination
0° 00' 00"
Sunlit
Object was in full shadow at epoch
Visualization orbit readout
Latitude
Unknown
Longitude
Unknown
Altitude
Unknown
Speed
Unknown
Apparent Right ascension
Unknown
Apparent Declination
Unknown
Sunlit
N/A
Visualization observer readout
Local Sidereal Time
16:04:00
Azimuth
Unknown
Elevation
Unknown
Doppler factor
Unknown
Orbital elements
Apogee altitude
633.504 km
Perigee altitude
570.764 km
Semi-major axis
6,980.271 km
Eccentricity
0.00449
Inclination
97.7452°
RAAN
38.4859°
Arg. of periapsis
299.3383°
True anomaly
60.78353°
Mean anomaly
60.3348°
Eccentric anomaly
60.55904°
Mean motion
3.72164 °/min
Orbital period
96.73 mins
BSTAR
0.00066627
Loading maneuver chart data...
Computing Atmospheric mass density...
Loading historical data...
Loading historical data...
Loading historical data...
Loading historical data...
Loading historical data...
Loading historical data...
Loading historical data...

Documentation

Showing up to 5 results
|